Hillsboro, TX

9:03 PM CST on February 26, 2017 (GMT -0600)
Hillsboro

Weather History for KINJ - September, 2013

Change the Weather History Date:

Tuesday, September 17, 2013

  Actual Average (KACT) Record (KACT)
Temperature  
Mean Temperature 84 °F -  
Max Temperature 94 °F 88 °F 100 °F (1997)
Min Temperature 75 °F 65 °F 48 °F (1903)
Cooling Degree Days 19    
Growing Degree Days 34 (Base 50)    
Moisture  
Dew Point 62 °F    
Average Humidity 46    
Maximum Humidity 63    
Minimum Humidity 34    
Precipitation  
Precipitation 0.00 in - - ()
Sea Level Pressure  
Sea Level Pressure 30.03 in    
Wind  
Wind Speed 5 mph (SE)    
Max Wind Speed 12 mph    
Max Gust Speed 18 mph    
Visibility 10 miles    
Events      
Averages and records for this station are not official NWS values.
T = Trace of Precipitation, MM = Missing Value Source: NWS Daily Summary

Daily Weather History Graph

Daily Weather History Graph

Search for Another Location

Airport or City:

Trip Planner

Search our weather history database for the weather conditions in past years. The results will help you decide how hot, cold, wet, or windy it might be!

Date:

Astronomy

Sep. 17, 2013 Rise Set
Actual Time 7:13 AM CDT 7:31 PM CDT
Civil Twilight 6:49 AM CDT 7:55 PM CDT
Nautical Twilight 6:20 AM CDT 8:24 PM CDT
Astronomical Twilight 5:51 AM CDT 8:53 PM CDT
Moon 6:16 PM CDT (9/17) 5:14 AM CDT (9/17)
Length of Visible Light 13h 06m
Length of Day
12h 17m
Waxing Gibbous, 96% of the Moon is Illuminated
Sep 17
Waxing Gibbous
Sep 19
Full
Sep 26
Last Quarter
Oct 4
New
Oct 11
First Quarter

Hourly Weather History & Observations

Time (CDT) Temp. Heat Index Dew Point Humidity Pressure Visibility Wind Dir Wind Speed Gust Speed Precip Events Conditions
12:15 AM 83.7 °F 83.8 °F 60.1 °F 45% 30.05 in 10.0 mi ESE 5.8 mph - N/A   Clear
12:35 AM 83.7 °F 83.4 °F 59.0 °F 43% 30.05 in 10.0 mi SSE 8.1 mph - N/A   Clear
12:55 AM 83.3 °F 82.6 °F 56.7 °F 40% 30.05 in 10.0 mi SSE 8.1 mph - N/A   Clear
1:15 AM 83.7 °F 83.1 °F 57.7 °F 41% 30.06 in 10.0 mi South 8.1 mph - N/A   Clear
1:35 AM 82.8 °F 82.8 °F 59.4 °F 45% 30.06 in 10.0 mi South 5.8 mph - N/A   Clear
1:55 AM 81.9 °F 82.2 °F 60.1 °F 47% 30.06 in 10.0 mi South 4.6 mph - N/A   Clear
2:15 AM 81.0 °F 81.6 °F 60.3 °F 49% 30.06 in 10.0 mi South 4.6 mph - N/A   Clear
2:35 AM 80.6 °F 81.5 °F 60.8 °F 51% 30.06 in 10.0 mi South 3.5 mph - N/A   Clear
2:55 AM 80.1 °F 81.0 °F 60.4 °F 51% 30.05 in 10.0 mi SSE 3.5 mph - N/A   Clear
3:15 AM 79.9 °F - 59.9 °F 50% 30.05 in 10.0 mi Calm Calm - N/A   Clear
3:35 AM 79.3 °F - 60.6 °F 53% 30.05 in 10.0 mi Calm Calm - N/A   Clear
3:55 AM 78.1 °F - 59.5 °F 53% 30.05 in 10.0 mi Calm Calm - N/A   Clear
4:15 AM 77.9 °F - 60.6 °F 55% 30.05 in 10.0 mi Calm Calm - N/A   Clear
4:35 AM 78.3 °F - 60.6 °F 54% 30.05 in 10.0 mi SSE 3.5 mph - N/A   Clear
4:55 AM 77.0 °F - 60.1 °F 56% 30.04 in 10.0 mi Calm Calm - N/A   Clear
5:15 AM 76.6 °F - 61.0 °F 58% 30.04 in 10.0 mi Calm Calm - N/A   Clear
5:35 AM 76.6 °F - 61.0 °F 58% 30.04 in 10.0 mi Calm Calm - N/A   Clear
5:55 AM 76.5 °F - 61.5 °F 60% 30.04 in 10.0 mi Calm Calm - N/A   Clear
6:15 AM 76.1 °F - 61.7 °F 61% 30.04 in 10.0 mi Calm Calm - N/A   Clear
6:35 AM 75.7 °F - 60.4 °F 59% 30.05 in 10.0 mi Calm Calm - N/A   Clear
6:55 AM 76.3 °F - 60.1 °F 57% 30.05 in 10.0 mi Calm Calm - N/A   Clear
7:15 AM 76.6 °F - 62.6 °F 62% 30.05 in 10.0 mi Calm Calm - N/A   Clear
7:35 AM 77.2 °F - 63.7 °F 63% 30.06 in 10.0 mi Calm Calm - N/A   Clear
7:55 AM 77.4 °F - 63.3 °F 62% 30.07 in 10.0 mi Calm Calm - N/A   Clear
8:15 AM 79.5 °F - 64.8 °F 60% 30.08 in 10.0 mi Calm Calm - N/A   Clear
8:35 AM 81.0 °F 83.0 °F 65.7 °F 60% 30.08 in 10.0 mi Calm Calm - N/A   Clear
8:55 AM 81.7 °F 83.8 °F 66.2 °F 59% 30.08 in 10.0 mi Calm Calm - N/A   Clear
9:15 AM 82.6 °F 85.1 °F 66.9 °F 59% 30.09 in 10.0 mi SSW 3.5 mph - N/A   Clear
9:35 AM 83.3 °F 85.7 °F 66.6 °F 57% 30.09 in 10.0 mi South 3.5 mph - N/A   Clear
9:55 AM 84.2 °F 86.3 °F 65.8 °F 54% 30.10 in 10.0 mi South 5.8 mph - N/A   Clear
10:15 AM 85.3 °F 87.1 °F 65.1 °F 51% 30.10 in 10.0 mi South 5.8 mph - N/A   Clear
10:35 AM 85.3 °F 87.4 °F 65.7 °F 52% 30.10 in 10.0 mi South 5.8 mph - N/A   Clear
10:55 AM 86.0 °F 87.9 °F 65.5 °F 50% 30.10 in 10.0 mi South 6.9 mph - N/A   Clear
11:15 AM 85.6 °F 87.4 °F 65.3 °F 50% 30.09 in 10.0 mi SE 5.8 mph - N/A   Clear
11:35 AM 86.2 °F 88.2 °F 65.3 °F 50% 30.09 in 10.0 mi ESE 5.8 mph - N/A   Clear
11:55 AM 87.1 °F 88.9 °F 65.3 °F 48% 30.09 in 10.0 mi SE 6.9 mph - N/A   Clear
12:15 PM 87.8 °F 90.0 °F 65.8 °F 48% 30.08 in 10.0 mi SE 6.9 mph - N/A   Clear
12:35 PM 88.9 °F 91.0 °F 65.7 °F 46% 30.08 in 10.0 mi East 5.8 mph - N/A   Scattered Clouds
12:55 PM 89.1 °F 90.6 °F 64.8 °F 44% 30.07 in 10.0 mi SE 5.8 mph - N/A   Scattered Clouds
1:15 PM 90.3 °F 92.6 °F 65.8 °F 44% 30.06 in 10.0 mi East 9.2 mph - N/A   Mostly Cloudy
1:35 PM 92.8 °F 93.5 °F 62.1 °F 36% 30.04 in 10.0 mi SSE 6.9 mph 18.4 mph N/A   Scattered Clouds
1:55 PM 90.9 °F 90.3 °F 59.4 °F 35% 30.03 in 10.0 mi ESE 10.4 mph - N/A   Scattered Clouds
2:15 PM 92.5 °F 93.0 °F 61.7 °F 36% 30.02 in 10.0 mi SSE 9.2 mph - N/A   Scattered Clouds
2:35 PM 93.6 °F 93.8 °F 61.5 °F 34% 30.01 in 10.0 mi SSE 11.5 mph - N/A   Scattered Clouds
2:55 PM 92.7 °F 92.5 °F 60.8 °F 34% 30.01 in 10.0 mi SSE 5.8 mph - N/A   Scattered Clouds
3:15 PM 92.7 °F 93.2 °F 61.7 °F 36% 30.00 in 10.0 mi SE 9.2 mph - N/A   Scattered Clouds
3:35 PM 92.3 °F 92.0 °F 60.4 °F 34% 29.99 in 10.0 mi SE 9.2 mph - N/A   Scattered Clouds
3:55 PM 93.2 °F 93.3 °F 60.8 °F 34% 29.98 in 10.0 mi SE 8.1 mph - N/A   Scattered Clouds
4:15 PM 92.7 °F 92.5 °F 60.3 °F 34% 29.97 in 10.0 mi South 9.2 mph - N/A   Scattered Clouds
4:35 PM 92.5 °F 92.6 °F 61.5 °F 35% 29.96 in 10.0 mi South 8.1 mph - N/A   Clear
4:55 PM 93.0 °F 93.4 °F 61.9 °F 35% 29.96 in 10.0 mi SSE 8.1 mph - N/A   Clear
5:15 PM 93.4 °F 93.5 °F 61.3 °F 34% 29.96 in 10.0 mi SSE 10.4 mph - N/A   Scattered Clouds
5:35 PM 92.5 °F 92.6 °F 60.8 °F 35% 29.96 in 10.0 mi SE 9.2 mph - N/A   Scattered Clouds
6:15 PM 91.8 °F 91.5 °F 60.3 °F 35% 29.95 in 10.0 mi SSE 8.1 mph - N/A   Clear
6:35 PM 91.4 °F 90.7 °F 59.7 °F 34% 29.95 in 10.0 mi SE 4.6 mph - N/A   Clear
6:55 PM 91.0 °F 90.2 °F 59.4 °F 34% 29.95 in 10.0 mi East 4.6 mph - N/A   Clear
7:15 PM 90.3 °F 89.6 °F 59.2 °F 35% 29.95 in 10.0 mi East 4.6 mph - N/A   Clear
7:35 PM 89.2 °F 88.4 °F 59.2 °F 36% 29.95 in 10.0 mi ESE 3.5 mph - N/A   Clear
7:55 PM 88.2 °F 87.6 °F 59.4 °F 38% 29.96 in 10.0 mi East 3.5 mph - N/A   Clear
8:15 PM 87.3 °F 87.0 °F 59.9 °F 40% 29.96 in 10.0 mi ESE 3.5 mph - N/A   Clear
8:35 PM 86.9 °F 86.5 °F 59.7 °F 40% 29.97 in 10.0 mi ESE 4.6 mph - N/A   Clear
8:55 PM 86.2 °F 85.9 °F 60.1 °F 41% 29.98 in 10.0 mi ESE 4.6 mph - N/A   Clear
9:15 PM 85.5 °F 85.2 °F 59.9 °F 42% 29.98 in 10.0 mi ESE 4.6 mph - N/A   Clear
9:35 PM 85.1 °F 85.0 °F 60.1 °F 43% 29.99 in 10.0 mi East 4.6 mph - N/A   Clear
9:55 PM 85.1 °F 85.0 °F 60.3 °F 43% 29.99 in 10.0 mi East 5.8 mph - N/A   Scattered Clouds
10:15 PM 85.1 °F 85.0 °F 60.4 °F 43% 30.00 in 10.0 mi East 4.6 mph - N/A   Clear
10:35 PM 85.1 °F 85.2 °F 60.8 °F 44% 30.00 in 10.0 mi East 5.8 mph - N/A   Clear
10:55 PM 84.7 °F 84.8 °F 60.4 °F 44% 30.00 in 10.0 mi East 5.8 mph - N/A   Scattered Clouds
11:15 PM 84.6 °F 84.6 °F 60.4 °F 44% 30.00 in 10.0 mi East 6.9 mph - N/A   Scattered Clouds
11:35 PM 84.6 °F 84.8 °F 60.8 °F 45% 30.00 in 10.0 mi ESE 6.9 mph - N/A   Scattered Clouds
11:55 PM 84.7 °F 84.8 °F 60.8 °F 44% 30.00 in 10.0 mi SE 9.2 mph - N/A   Scattered Clouds